Simultaneous Nadir Overpasses (SNOs) Predictions

Prediction of SNOs near US between NOAA-19 and NPP Satellite Orbit:

Table of predicted SNOs near US for the next 10.0 days since TLE Epoch: 8/3/2012
Index Date (NOAA-19) Time (NOAA-19) NOAA-19 Lat,Lon Date (NPP) Time (NPP) NPP Lat,Lon Distance(km) Time Diff (sec)
1 08/09/2012 06:28:36 44.85, -65.02 08/09/2012 06:29:00 45.38, -67.56 207.84 24
2 08/09/2012 08:09:21 49.44, -88.64 08/09/2012 08:09:12 49.87, -91.08 181.71 9
3 08/09/2012 09:52:01 47.45,-115.02 08/09/2012 09:51:17 47.85,-117.32 177.93 44
4 08/09/2012 17:59:23 49.97, -77.24 08/09/2012 17:55:55 49.73, -78.55 97.82 208
5 08/09/2012 19:41:28 49.96,-102.76 08/09/2012 19:37:25 49.73,-103.93 87.72 243
6 08/09/2012 21:21:09 41.71,-124.99 08/09/2012 21:16:32 41.47,-126.08 94.91 277
7 08/10/2012 08:07:02 20.01, -95.27 08/10/2012 07:58:42 20.10, -95.68 44.10 500
8 08/10/2012 09:49:07 20.02,-120.79 08/10/2012 09:40:29 19.10,-121.30 115.22 518




NCC Satellite Simultaneous Nadir Overpasses (SNOs) Prediction Service
